Location: Newark
(45.5000°N, 11.4167°E)
Time: 10:22:48
(UTC+00:00)

Altair - Pass Details

Date: 31 August 2019
Orbit: 1501 x 1682 km, 47.2° (Epoch: 20 October)

Event Time Altitude Azimuth Distance (km) Brightness Sun altitude
Exits shadow 23:18:40 38° 100° (E) 2,303 8.2 -36.0°
Drops below altitude 10° 23:24:50 10° 72° (ENE) 3,819 9.7 -36.0°
Sets 23:28:01 0° 67° (ENE) 4,781 10.4 -36.0°
